Regional Weather Roundup
Issued by NWS

Home | Current Version | Previous Version | Text Only | Print | Product List | Glossary On
Versions: 1 2 3 4 5 6 7 8 9 10 11 12 13 14 15 16 17 18 19 20 21 22 23 24 25 26 27 28 29 30 31 32 33 34 35 36 37 38 39 40 41 42 43 44 45 46 47 48 49 50
000
ASUS45 KBOI 211310
RWRID
WEATHER ROUNDUP FOR IDAHO
NATIONAL WEATHER SERVICE BOISE ID
700 AM MDT TUE OCT 21 2014

NOTE: "FAIR" INDICATES FEW OR NO CLOUDS BELOW 12000 FEET
WITH NO SIGNIFICANT WEATHER AND/OR OBSTRUCTIONS TO VISIBILITY

IDZ012-014-211400-
SOUTHWEST IDAHO


CITY           SKY/WX    TMP DP  RH WIND       PRES   REMARKS
BOISE          CLOUDY    49  44  83 S9        29.93R
CALDWELL       CLOUDY    48  37  66 SE7       29.94S
MOUNTAIN HOME  DRIZZLE   48  48 100 NE15      29.92F
$$

IDZ016-017-211400-
SOUTHCENTRAL IDAHO


CITY           SKY/WX    TMP DP  RH WIND       PRES   REMARKS
BURLEY         LGT RAIN  46  38  73 W32G48    29.95R
JEROME         LGT RAIN  42  39  89 SW28G35   29.99R
TWIN FALLS     LGT RAIN  43  37  79 SW21G29   30.00R
$$

IDZ019>023-211400-
SOUTHEAST IDAHO


CITY           SKY/WX    TMP DP  RH WIND       PRES   REMARKS
IDAHO FALLS    CLOUDY    55  44  66 S16G24    29.85S
POCATELLO      LGT RAIN  50  42  74 SW17G28   29.90R
REXBURG        LGT RAIN  50  42  74 CALM      29.85R
$$

IDZ006-010-011-018-031-032-211400-
CENTRAL IDAHO MOUNTAINS


CITY           SKY/WX    TMP DP  RH WIND       PRES   REMARKS
MCCALL         LGT RAIN  42  40  92 SW5       29.86F
HAILEY         MOCLDY    46  39  76 E12       29.84S
STANLEY          N/A     40  37  89 N5        29.89R
SALMON         CLOUDY    48  43  81 SE7       29.73S
CHALLIS        CLOUDY    51  42  71 CALM      29.76F
$$

IDZ002-004-006-007-026-211400-
NORTHERN IDAHO


CITY           SKY/WX    TMP DP  RH WIND       PRES   REMARKS
LEWISTON       CLOUDY    52  49  89 E5        29.88R
LOWELL           N/A     50  49  96 CALM      29.90S
COEUR D`ALENE  CLOUDY    48  45  87 S6        29.85S
MULLAN PASS    LGT RAIN  35  35 100 VRB7      29.84S WCI  29
$$


USA.gov is the U.S. government's official web portal to all federal, state and local government web resources and services.